Temperature
23 23 22 22 21 21 21 20 20 20 20 19 19 19 19 19 19 19 18 18 18 18 18 18 18 18 18 18 18 18 18 18 18 18 17 17 17 17 17 17 17 17 17
23 22 22 22 22 21 21 21 20 20 20 20 19 19 19 19 19 19 19 18 18 18 18 18 18 18 18 18 18 18 18 17 17 17 17 17 17 17 17 17 17 17 17
23 23 22 22 22 22 21 21 21 20 20 20 19 19 19 19 19 19 19 19 18 18 18 18 18 18 18 18 18 18 18 18 17 17 17 17 17 16 17 17 17 16 17
24 23 23 22 22 22 22 21 21 21 20 20 19 19 19 19 19 19 19 19 19 19 18 18 18 18 18 18 18 18 18 17 17 17 17 17 17 17 16 16 16 16 16
24 23 23 23 23 22 22 22 21 21 20 20 20 19 19 19 19 19 19 19 19 19 18 18 18 18 18 18 18 18 17 17 17 17 17 17 17 17 16 16 16 16 16
24 24 23 23 23 22 22 22 21 21 21 20 20 20 20 19 19 19 19 19 19 19 18 18 18 18 18 18 18 18 17 17 17 17 17 17 17 17 16 16 16 16 16
24 24 23 23 23 22 22 22 22 21 21 21 20 20 20 20 19 19 19 19 19 19 19 18 18 18 18 18 18 18 18 17 17 17 17 17 17 17 16 16 16 15 15
24 24 24 23 23 23 23 22 22 22 21 21 21 21 20 20 20 20 19 19 19 19 19 18 18 18 18 18 18 18 18 17 17 17 17 17 17 17 16 16 16 15 15
24 24 24 24 23 23 23 23 22 22 22 22 21 21 21 20 20 20 19 19 19 19 19 18 18 18 18 18 18 18 17 17 17 17 17 17 17 16 16 16 16 16 15
25 24 24 24 24 24 23 23 23 23 22 22 22 21 21 21 20 20 20 20 19 19 19 19 19 18 18 18 18 18 17 17 17 17 17 17 16 16 16 16 16 16 15
25 25 25 24 24 24 23 23 23 23 22 22 22 21 21 21 20 20 20 20 19 19 19 19 18 18 18 18 18 18 18 17 17 17 17 17 16 16 16 16 16 16 15
25 25 25 24 24 24 24 23 23 23 22 22 22 21 21 21 21 20 20 19 19 19 19 19 18 18 18 18 18 18 18 17 17 17 17 17 16 16 16 16 16 15 15
25 25 25 24 24 24 24 23 23 23 22 22 22 21 21 21 21 20 20 19 19 19 19 18 19 18 18 18 18 18 17 17 17 17 17 16 16 16 16 16 15 15 15
25 25 25 24 24 24 24 23 23 23 23 22 22 21 21 21 21 20 20 19 19 19 19 19 18 18 18 18 18 17 17 17 17 17 16 16 16 16 16 16 15 15 15
25 25 25 24 24 24 24 24 23 23 23 22 22 22 21 21 21 20 20 19 19 19 19 19 18 18 18 18 18 17 17 17 17 17 16 16 16 16 16 15 15 15 15
24 24 24 24 24 24 24 23 23 23 22 22 22 22 21 21 20 20 20 19 19 19 18 18 18 18 18 18 18 17 17 17 17 16 16 16 16 16 15 15 15 15 15
24 24 24 24 24 24 24 23 23 22 22 22 22 21 21 21 20 20 20 19 19 19 18 18 18 18 18 18 18 17 17 17 16 16 16 16 16 15 15 15 15 15 14
24 24 24 24 24 24 23 23 22 22 22 21 21 21 21 20 20 20 19 19 19 18 18 18 18 18 18 17 17 17 16 16 16 16 16 16 15 15 15 15 15 14 14
24 24 24 23 23 23 23 23 22 22 21 21 21 21 20 20 20 19 19 19 18 18 18 18 18 17 17 17 17 17 16 16 16 16 16 15 15 15 15 14 14 14 14
24 23 23 23 23 23 23 22 22 21 21 21 21 20 20 20 19 19 19 18 18 18 18 17 17 17 17 17 17 17 16 16 16 16 15 15 15 15 14 14 14 14 14
24 23 23 23 23 22 22 22 21 21 21 21 20 20 20 19 19 19 19 18 18 17 17 17 17 17 17 16 16 16 16 16 16 15 15 15 15 14 14 14 14 14 14
23 23 23 23 22 22 22 21 21 21 20 20 20 20 19 19 18 18 18 18 17 17 17 16 16 16 16 16 16 16 16 16 15 15 15 15 14 14 14 13 13 13 13
23 23 22 22 22 22 21 21 21 20 20 20 19 19 19 18 18 18 17 17 17 16 16 16 16 16 16 16 16 16 15 15 15 15 15 14 14 14 13 13 13 13 13
22 22 22 22 21 21 21 20 20 20 19 19 19 18 18 18 18 17 17 17 16 16 16 16 16 16 16 16 15 15 15 15 15 14 14 14 14 14 13 13 13 12 12
21 22 22 22 21 21 20 20 19 19 19 18 18 18 18 17 17 17 16 16 16 16 16 16 16 16 16 15 15 15 15 15 14 14 14 14 13 13 13 13 12 12 12
21 21 21 21 21 20 20 19 19 19 19 18 18 17 17 17 17 16 16 16 16 16 16 15 15 15 15 15 15 14 14 14 14 14 13 13 13 13 13 13 12 12 12
Wind_Speed
12 12 12 12 10 8 8 7 7 6 5 3 3 2 2 1 1 2 3 3 3 4 3 1 1 1 2 1 1 1 1 1 1 2 2 3 2 1 1 1 1 2 3
11 12 11 11 11 10 9 8 8 6 6 4 4 3 3 2 2 1 2 3 4 4 4 2 1 1 2 1 1 1 1 0 1 2 2 2 3 3 1 1 0 1 1
16 14 13 12 12 11 11 10 8 7 6 5 3 2 2 1 1 1 1 2 4 4 4 3 2 2 2 2 1 1 2 1 1 1 3 2 2 2 2 2 1 1 1
15 14 14 13 13 12 11 10 9 8 7 6 5 5 4 3 3 3 2 2 3 4 4 3 3 2 2 1 1 1 1 2 0 1 1 2 3 2 1 2 2 1 1
16 16 16 15 14 13 12 10 9 8 7 6 6 6 4 3 2 2 2 2 2 3 3 3 3 2 1 1 1 0 1 2 2 1 1 0 1 1 2 1 2 2 2
14 14 13 12 11 11 11 10 10 8 8 7 7 6 6 4 4 3 3 2 2 2 2 3 2 2 2 2 2 1 2 2 2 1 1 2 2 2 2 2 1 1 2
13 13 13 12 12 12 11 11 10 9 8 8 7 7 6 6 6 5 4 3 2 2 3 3 2 2 2 2 2 1 2 2 2 2 2 2 2 3 3 3 2 1 2
13 14 16 15 15 15 13 12 11 10 9 9 8 6 6 5 4 4 4 4 4 4 4 3 3 3 3 2 2 1 2 1 1 2 1 1 2 2 3 3 3 1 1
14 15 15 15 14 15 14 13 13 10 9 9 7 6 6 5 5 4 4 3 3 3 4 3 3 3 3 2 2 1 2 1 1 2 2 2 2 2 3 3 4 4 2
11 12 14 14 14 13 13 12 12 12 10 9 8 7 6 6 6 5 4 4 4 3 3 3 3 3 3 3 2 2 2 1 2 2 2 2 2 1 2 2 2 3 4
11 11 12 13 13 12 12 12 12 11 10 10 8 7 7 7 6 5 5 4 4 4 4 4 3 3 3 3 2 2 2 2 2 2 2 2 2 1 1 1 2 2 3
11 11 11 11 12 12 11 11 11 11 11 10 9 8 7 6 6 6 5 5 4 4 5 4 4 4 3 3 3 3 3 3 2 2 2 3 2 2 1 1 2 2 3
9 9 10 10 11 11 11 11 11 11 10 9 9 8 8 8 8 7 6 5 5 4 4 4 4 4 3 3 3 3 3 3 3 3 3 3 2 2 2 2 2 2 2
9 10 10 9 9 10 10 10 10 10 10 9 9 9 9 9 8 7 7 6 5 5 5 4 4 4 4 4 4 3 3 3 3 3 3 3 3 4 3 3 2 2 2
8 9 10 9 8 8 8 9 9 9 10 10 9 10 9 8 7 7 6 6 6 6 5 4 4 4 4 4 4 4 4 3 3 3 3 4 4 4 4 3 3 3 3
7 7 7 8 9 8 7 7 8 8 9 9 10 9 8 7 7 7 6 6 6 5 4 4 4 4 4 4 6 5 4 3 3 3 3 3 2 3 4 4 5 6 5
6 6 7 9 9 9 9 8 7 6 7 9 8 7 7 7 7 7 6 6 5 4 4 4 4 4 4 5 5 6 4 3 2 3 2 2 2 2 2 3 4 5 6
6 6 7 8 7 7 7 7 6 7 7 8 7 6 6 6 6 6 6 5 4 4 4 4 3 3 4 5 5 5 4 3 3 2 3 3 2 2 3 2 2 3 4
6 6 6 7 6 7 8 8 6 7 6 6 6 6 7 6 6 6 6 4 4 4 4 4 4 4 4 4 5 5 3 2 3 3 2 2 2 3 3 3 2 2 4
4 4 4 5 6 6 7 8 7 7 7 7 7 6 6 6 7 7 5 4 4 4 4 4 4 4 4 4 5 6 3 3 3 2 2 3 3 3 4 3 3 4 5
5 4 4 5 5 6 8 8 7 7 6 5 5 6 6 6 6 5 4 3 3 3 3 3 3 3 4 4 5 6 4 4 4 3 3 3 4 4 4 4 4 6 4
4 4 4 4 4 5 7 7 6 6 5 4 5 5 5 5 4 4 3 3 4 4 3 3 3 2 3 3 5 7 7 6 5 4 4 3 5 5 5 4 5 5 2
4 4 5 4 3 4 5 5 5 4 5 5 4 4 4 4 4 4 4 3 3 3 3 3 3 3 2 3 6 7 7 7 5 4 4 4 4 4 3 4 5 3 2
3 3 5 5 3 3 4 4 4 4 5 5 4 4 5 4 3 3 4 3 4 4 3 3 4 3 3 3 3 3 3 4 3 2 1 1 1 2 2 3 4 3 3
3 4 5 5 5 4 4 5 5 6 5 5 4 4 4 4 4 3 3 4 4 5 5 5 4 4 4 6 6 5 4 4 4 3 2 0 0 1 2 2 2 3 3
3 3 3 3 4 4 4 4 5 7 7 6 5 5 4 4 4 3 1 1 2 3 6 7 6 4 6 6 5 6 6 6 5 4 2 2 2 3 3 3 3 2 3
Wind_Direction
182 176 172 168 161 160 157 158 159 162 151 140 144 144 159 175 168 177 186 172 161 153 143 140 110 118 122 140 111 91 69 40 77 73 30 5 357 298 255 219 169 176 190
178 176 173 169 167 168 166 165 170 169 165 162 162 165 166 180 184 189 181 178 163 160 164 163 156 143 129 93 90 91 95 48 102 117 100 19 354 351 355 341 167 155 143
182 180 176 175 172 173 174 175 176 173 174 166 146 138 98 63 73 201 212 203 179 172 173 178 159 146 154 171 196 153 133 165 284 143 144 148 220 307 343 2 36 50 74
182 181 178 177 178 179 176 173 174 173 176 167 158 161 167 182 206 202 205 209 191 184 182 173 160 158 161 178 223 180 155 146 231 288 201 176 169 170 303 336 346 4 30
185 184 182 181 180 179 176 175 172 173 173 168 171 171 176 189 191 182 184 194 203 196 187 181 163 161 171 187 212 202 172 171 180 203 214 108 93 154 167 261 311 343 336
187 186 184 177 176 177 177 176 173 178 176 173 173 175 181 182 174 187 192 201 214 225 212 190 184 183 185 204 211 210 200 209 202 201 195 186 179 194 169 206 256 284 302
181 183 181 177 177 179 181 180 178 181 182 180 183 184 183 181 186 194 193 190 201 215 225 206 202 202 204 202 194 203 222 217 215 215 211 207 203 182 168 168 210 246 273
183 186 186 184 185 184 185 183 184 185 184 186 192 190 183 183 192 195 190 194 201 208 211 207 208 209 204 198 188 202 233 219 223 227 213 210 219 188 177 180 171 194 286
185 189 188 186 187 187 186 185 184 186 187 188 187 189 186 181 192 196 191 194 197 202 204 204 204 203 198 193 192 202 237 218 228 231 228 229 241 217 198 186 178 172 198
181 186 188 187 188 188 187 184 185 187 187 187 188 189 189 188 193 189 196 197 198 199 188 206 207 207 208 200 196 210 229 216 242 236 234 248 248 234 198 188 187 175 172
185 186 186 188 186 184 183 184 187 187 188 190 189 186 187 193 193 198 205 202 200 197 197 205 206 208 211 206 194 213 219 221 252 256 233 247 248 229 210 190 179 177 159
184 185 183 182 182 182 182 185 187 189 191 189 185 187 187 188 193 203 205 199 198 199 202 201 199 206 209 204 193 211 223 218 232 247 246 257 255 240 220 196 193 191 179
176 177 177 180 182 185 186 186 188 190 189 183 185 188 191 192 198 203 201 197 195 195 196 192 196 206 212 208 205 211 224 220 223 225 228 241 227 241 228 201 196 198 189
168 171 175 177 182 185 186 187 188 187 183 182 188 196 201 202 203 200 196 197 196 196 199 198 203 207 211 211 210 209 220 226 228 228 224 225 220 226 219 207 198 184 171
164 169 174 173 174 176 181 183 183 183 183 182 190 203 206 201 197 196 197 198 201 207 203 203 214 214 213 222 214 210 217 215 229 240 236 230 221 216 210 201 192 175 174
173 168 167 170 172 171 173 176 182 184 180 184 195 199 195 192 194 197 198 200 204 205 198 203 210 219 233 228 210 203 216 215 218 236 247 244 233 221 212 197 185 178 179
163 163 164 170 176 177 170 169 176 173 177 184 188 186 185 188 192 192 189 195 198 196 201 212 208 221 234 223 213 203 197 204 213 226 231 250 257 227 216 203 200 204 203
163 167 169 170 173 170 164 162 154 158 174 182 181 182 184 189 189 189 196 200 198 200 207 210 216 227 240 224 217 200 190 201 216 223 221 227 245 226 190 192 202 222 228
166 163 169 169 165 162 155 144 148 155 161 180 180 182 183 185 187 193 200 197 188 200 206 207 212 219 248 230 208 185 189 211 233 235 227 219 230 217 183 168 202 252 266
144 145 149 144 153 168 154 147 156 165 180 190 190 183 179 182 188 193 196 196 192 204 200 205 211 214 236 236 207 185 186 214 245 257 243 225 219 211 185 185 201 238 258
131 131 133 146 166 164 151 158 169 186 196 186 179 179 181 184 186 185 185 182 180 179 187 206 225 229 237 235 213 195 194 207 224 238 247 245 221 214 206 205 219 238 247
128 131 136 152 164 154 156 169 187 193 177 167 170 179 182 184 176 169 173 171 173 183 198 212 235 250 248 241 227 216 216 211 213 230 232 230 218 215 216 222 239 244 242
146 144 151 154 156 159 162 179 199 174 159 158 170 174 170 171 165 167 176 179 185 196 214 218 238 261 261 251 240 229 228 227 227 239 218 206 207 210 231 249 247 238 213
155 159 150 153 168 175 176 181 175 157 149 162 174 168 167 168 167 173 184 191 201 207 215 225 237 249 256 256 252 243 237 231 225 231 215 187 202 215 239 255 256 240 227
177 170 171 175 183 183 187 184 168 156 157 173 172 170 175 174 175 184 202 207 219 216 211 225 227 230 243 249 231 209 213 207 202 170 144 159 265 268 268 264 267 256 246
182 172 179 186 186 177 185 185 173 165 166 176 177 181 183 185 185 187 224 301 258 240 226 228 224 234 234 233 212 205 206 197 168 146 178 209 220 229 238 244 258 262 251
Height
1529 1532 1534 1535 1537 1539 1540 1541 1542 1543 1544 1545 1545 1546 1547 1547 1547 1548 1548 1548 1548 1548 1547 1547 1546 1546 1546 1545 1545 1544 1544 1543 1543 1542 1542 1542 1542 1541 1541 1540 1540 1540 1539
1528 1530 1532 1534 1535 1537 1539 1540 1541 1542 1543 1544 1545 1546 1546 1547 1547 1547 1548 1547 1547 1547 1547 1547 1546 1546 1545 1545 1544 1544 1543 1543 1542 1542 1541 1541 1541 1540 1540 1539 1539 1538 1538
1524 1527 1529 1531 1533 1535 1537 1538 1540 1541 1542 1543 1544 1545 1546 1546 1546 1546 1547 1547 1547 1547 1547 1546 1546 1545 1545 1544 1543 1543 1543 1542 1542 1541 1541 1540 1540 1539 1539 1538 1538 1537 1536
1522 1524 1526 1529 1531 1533 1535 1536 1538 1540 1541 1542 1543 1543 1544 1544 1545 1545 1546 1546 1546 1546 1546 1546 1545 1545 1544 1544 1543 1542 1542 1541 1541 1540 1540 1540 1539 1539 1538 1537 1537 1536 1535
1518 1521 1523 1525 1528 1531 1533 1535 1536 1538 1540 1541 1542 1542 1543 1543 1544 1545 1545 1545 1545 1545 1545 1545 1545 1544 1544 1543 1542 1542 1541 1540 1540 1539 1539 1538 1538 1538 1537 1536 1536 1535 1534
1516 1519 1522 1524 1527 1530 1532 1533 1535 1536 1538 1539 1540 1541 1541 1542 1543 1543 1543 1544 1544 1544 1544 1544 1544 1543 1543 1542 1541 1541 1540 1539 1539 1538 1538 1537 1536 1536 1535 1534 1533 1533 1533
1513 1517 1520 1522 1525 1527 1529 1531 1533 1534 1536 1537 1538 1539 1540 1541 1542 1542 1542 1542 1543 1543 1543 1543 1543 1542 1542 1541 1540 1540 1539 1538 1537 1537 1536 1535 1535 1534 1534 1533 1532 1531 1531
1510 1513 1516 1519 1521 1524 1526 1528 1530 1531 1533 1535 1536 1538 1539 1540 1540 1541 1541 1541 1541 1541 1542 1542 1541 1541 1541 1540 1539 1538 1538 1537 1536 1535 1535 1534 1533 1533 1532 1531 1530 1529 1529
1506 1509 1513 1516 1518 1521 1523 1525 1527 1529 1531 1533 1534 1536 1537 1538 1539 1539 1540 1539 1540 1540 1540 1540 1540 1539 1539 1539 1538 1537 1536 1536 1535 1534 1533 1532 1531 1531 1530 1529 1529 1528 1527
1503 1506 1510 1513 1515 1518 1520 1523 1524 1526 1528 1530 1532 1533 1535 1536 1537 1538 1538 1538 1538 1538 1538 1538 1538 1538 1537 1537 1536 1536 1535 1534 1533 1532 1531 1530 1529 1528 1528 1527 1527 1527 1526
1501 1504 1506 1510 1513 1515 1518 1520 1522 1524 1526 1528 1530 1531 1533 1534 1535 1535 1536 1536 1536 1536 1536 1536 1536 1536 1536 1535 1535 1534 1533 1532 1531 1531 1529 1528 1528 1527 1526 1525 1525 1525 1524
1498 1501 1504 1507 1510 1513 1515 1518 1520 1522 1524 1526 1528 1529 1530 1531 1532 1533 1533 1534 1534 1535 1535 1534 1534 1534 1533 1533 1533 1532 1531 1531 1530 1529 1528 1527 1526 1525 1524 1524 1523 1523 1522
1496 1499 1503 1505 1507 1510 1512 1515 1517 1519 1522 1524 1525 1527 1528 1529 1529 1530 1531 1532 1532 1532 1532 1532 1532 1531 1531 1531 1530 1530 1529 1529 1528 1527 1526 1525 1524 1523 1522 1522 1521 1521 1520
1494 1497 1500 1502 1504 1507 1510 1512 1514 1517 1519 1521 1523 1524 1525 1526 1527 1528 1528 1529 1529 1529 1529 1529 1529 1528 1528 1528 1527 1527 1527 1526 1525 1525 1524 1523 1522 1521 1520 1520 1519 1518 1518
1493 1495 1497 1499 1502 1505 1507 1510 1512 1514 1516 1518 1520 1521 1522 1523 1524 1525 1526 1526 1526 1527 1527 1526 1526 1526 1525 1525 1524 1524 1523 1522 1522 1522 1521 1520 1519 1519 1518 1517 1517 1516 1515
1491 1493 1495 1498 1500 1502 1504 1506 1509 1511 1513 1515 1516 1518 1519 1520 1521 1521 1522 1523 1523 1523 1523 1523 1523 1523 1522 1521 1521 1521 1520 1519 1519 1518 1518 1517 1517 1516 1515 1515 1514 1514 1513
1489 1491 1493 1495 1497 1499 1501 1503 1505 1508 1510 1511 1513 1514 1515 1516 1517 1518 1519 1520 1520 1520 1520 1520 1520 1519 1519 1518 1518 1517 1517 1516 1515 1515 1514 1514 1514 1513 1512 1512 1511 1511 1510
1487 1489 1491 1493 1495 1497 1499 1501 1502 1504 1506 1507 1509 1511 1512 1513 1514 1515 1516 1516 1516 1516 1516 1516 1516 1516 1516 1515 1515 1514 1514 1513 1512 1512 1511 1511 1510 1510 1509 1508 1508 1507 1507
1487 1488 1490 1491 1493 1495 1496 1498 1500 1501 1503 1504 1505 1507 1509 1510 1511 1512 1512 1513 1513 1513 1512 1512 1512 1512 1512 1512 1512 1511 1511 1510 1509 1508 1508 1507 1507 1506 1506 1505 1504 1504 1504
1486 1487 1489 1490 1492 1494 1495 1496 1497 1499 1499 1501 1503 1504 1505 1506 1507 1508 1509 1509 1509 1509 1509 1509 1509 1509 1508 1508 1508 1508 1507 1506 1506 1505 1504 1504 1503 1503 1502 1502 1501 1500 1500
1485 1487 1488 1488 1490 1492 1493 1494 1495 1496 1497 1499 1501 1502 1503 1503 1504 1505 1506 1506 1506 1506 1506 1506 1506 1505 1505 1505 1505 1505 1504 1503 1502 1501 1501 1501 1500 1500 1499 1499 1498 1497 1497
1483 1485 1486 1487 1488 1489 1491 1491 1492 1494 1496 1497 1498 1499 1500 1501 1502 1502 1502 1503 1503 1503 1503 1502 1502 1502 1501 1501 1501 1501 1500 1499 1498 1497 1497 1497 1496 1496 1495 1495 1495 1495 1494
1482 1483 1484 1485 1486 1487 1488 1489 1490 1492 1493 1494 1496 1497 1497 1498 1499 1499 1500 1500 1500 1500 1499 1499 1498 1498 1498 1497 1497 1497 1496 1496 1495 1494 1493 1493 1492 1492 1491 1492 1492 1491 1490
1481 1482 1483 1483 1484 1485 1486 1487 1488 1490 1491 1492 1493 1494 1494 1495 1496 1496 1497 1496 1496 1496 1496 1495 1495 1494 1494 1494 1493 1492 1492 1491 1491 1490 1490 1489 1489 1489 1488 1488 1488 1488 1487
1479 1480 1480 1481 1481 1482 1483 1485 1486 1487 1488 1488 1489 1490 1492 1492 1493 1493 1493 1493 1493 1493 1493 1492 1492 1491 1490 1490 1490 1489 1488 1488 1487 1487 1486 1486 1485 1485 1484 1484 1484 1484 1483
1476 1477 1477 1478 1478 1479 1480 1481 1483 1484 1485 1486 1487 1488 1489 1490 1490 1490 1490 1490 1490 1490 1490 1490 1489 1488 1487 1487 1486 1486 1485 1485 1485 1484 1482 1482 1482 1481 1481 1480 1479 1479 1479